N1YZ Weather Reports


time (UTC)temp
F
wind
direction
speed
knots
gust
knots
rain 1hr
in
rain 24hr
in
rain mn
in
humidity
%
barometer
mb
20260903215109 93 352 0.9 0.9 0.00 0.00 0.00 54 1033.2
20260903214608 93 347 0.0 0.0 0.00 0.00 0.00 58 1033.2
20260903214103 93 341 0.0 0.0 0.00 0.00 0.00 57 1033.2
20260903213558 93 350 0.0 0.0 0.00 0.00 0.00 56 1033.3
20260903213054 94 358 1.7 1.7 0.00 0.00 0.00 57 1033.3
20260903212550 94 359 0.0 0.0 0.00 0.00 0.00 56 1033.3
20260903212045 94 34 0.0 0.0 0.00 0.00 0.00 54 1033.3
20260903211540 94 94 0.9 0.9 0.00 0.00 0.00 54 1033.3
20260903211036 94 8 0.0 0.0 0.00 0.00 0.00 54 1033.4
20260903210531 94 346 0.9 1.7 0.00 0.00 0.00 57 1033.4
20260903210026 94 16 0.0 0.0 0.00 0.00 0.00 54 1033.6
20260903205520 94 26 0.9 0.9 0.00 0.00 0.00 56 1033.6
20260903205015 94 18 0.0 0.9 0.00 0.00 0.00 57 1033.7
20260903204511 94 59 0.0 0.0 0.00 0.00 0.00 56 1033.5
20260903204006 94 0 0.0 0.9 0.00 0.00 0.00 56 1033.4
20260903203501 94 8 0.9 1.7 0.00 0.00 0.00 57 1033.7
20260903203000 94 40 0.0 0.9 0.00 0.00 0.00 55 1033.7
20260903202457 93 15 0.0 0.0 0.00 0.00 0.00 57 1033.6
20260903201951 93 7 0.0 0.0 0.00 0.00 0.00 58 1034.0
20260903201447 93 83 0.9 0.9 0.00 0.00 0.00 59 1033.8
20260903200945 94 9 0.0 0.9 0.00 0.00 0.00 56 1033.9
20260903200441 95 19 0.0 0.0 0.00 0.00 0.00 55 1034.1
20260903195935 96 25 0.0 0.0 0.00 0.00 0.00 54 1034.4
20260903195432 96 21 0.9 0.9 0.00 0.00 0.00 50 1034.4
20260903194926 95 3 0.0 0.0 0.00 0.00 0.00 55 1034.4
20260903194422 94 351 1.7 2.6 0.00 0.00 0.00 56 1034.3
20260903193917 94 5 0.0 0.0 0.00 0.00 0.00 56 1034.4
20260903193414 94 12 0.0 0.0 0.00 0.00 0.00 55 1034.5
20260903192908 95 20 0.0 0.9 0.00 0.00 0.00 52 1034.5
20260903192404 95 26 0.0 0.9 0.00 0.00 0.00 55 1034.7
20260903191901 94 19 0.0 0.0 0.00 0.00 0.00 56 1035.0
20260903191356 94 16 0.0 0.0 0.00 0.00 0.00 56 1034.8
20260903190855 95 358 0.9 0.9 0.00 0.00 0.00 53 1035.2
20260903190350 96 7 0.0 0.0 0.00 0.00 0.00 53 1035.0
20260903185849 96 349 0.0 0.0 0.00 0.00 0.00 54 1035.2
20260903185344 97 28 0.0 0.0 0.00 0.00 0.00 51 1035.2
20260903184840 96 18 0.9 0.9 0.00 0.00 0.00 51 1034.6
20260903184337 96 15 0.0 0.9 0.00 0.00 0.00 53 1035.2
20260903183832 97 357 0.0 0.9 0.00 0.00 0.00 51 1035.2
20260903183327 96 35 1.7 1.7 0.00 0.00 0.00 54 1035.0
20260903182826 96 162 0.9 0.9 0.00 0.00 0.00 52 1035.3
20260903182320 96 101 0.9 0.9 0.00 0.00 0.00 53 1035.4
20260903181820 94 11 0.0 0.9 0.00 0.00 0.00 57 1035.7
20260903181315 93 7 0.9 0.9 0.00 0.00 0.00 57 1035.6
20260903180814 94 18 0.0 0.0 0.00 0.00 0.00 56 1035.6
20260903180313 95 15 0.0 0.0 0.00 0.00 0.00 55 1035.8
20260903175808 95 140 1.7 2.6 0.00 0.00 0.00 52 1035.6
20260903175307 95 25 0.0 0.0 0.00 0.00 0.00 53 1035.8
20260903174802 95 75 0.9 0.9 0.00 0.00 0.00 52 1035.7
20260903174257 94 16 0.0 0.0 0.00 0.00 0.00 56 1035.9
20260903173756 94 28 0.9 0.9 0.00 0.00 0.00 60 1035.9
20260903173253 95 8 0.0 0.9 0.00 0.00 0.00 55 1035.9
20260903172748 94 103 0.9 0.9 0.00 0.00 0.00 59 1036.0
20260903172242 94 22 0.0 0.0 0.00 0.00 0.00 60 1036.2
20260903171738 94 11 0.9 0.9 0.00 0.00 0.00 58 1036.3
20260903171233 93 338 0.9 1.7 0.00 0.00 0.00 63 1036.2
20260903170727 92 7 0.0 0.0 0.00 0.00 0.00 62 1036.4
20260903170222 93 91 1.7 1.7 0.00 0.00 0.00 56 1036.3
20260903165720 93 30 0.0 0.0 0.00 0.00 0.00 57 1036.4
20260903165215 94 33 0.0 0.0 0.00 0.00 0.00 58 1036.4
20260903164709 94 125 1.7 1.7 0.00 0.00 0.00 57 1036.7
20260903164206 93 111 0.9 0.9 0.00 0.00 0.00 59 1036.6
20260903163705 93 5 0.9 0.9 0.00 0.00 0.00 61 1036.5
20260903163202 92 356 0.0 0.0 0.00 0.00 0.00 64 1036.6
20260903162657 91 26 0.0 0.0 0.00 0.00 0.00 64 1036.7
20260903162153 91 3 0.9 1.7 0.00 0.00 0.00 64 1036.9
20260903161649 91 352 0.0 0.0 0.00 0.00 0.00 67 1036.8
20260903161144 91 7 0.9 0.9 0.00 0.00 0.00 66 1036.9
20260903160639 92 23 0.0 0.0 0.00 0.00 0.00 64 1037.0
20260903160133 92 34 0.0 0.0 0.00 0.00 0.00 64 1037.1
20260903155632 92 325 0.0 0.0 0.00 0.00 0.00 61 1037.2
20260903155127 92 322 0.0 0.9 0.00 0.00 0.00 60 1037.3
20260903154623 92 336 0.0 0.0 0.00 0.00 0.00 63 1037.1
20260903154120 91 13 0.0 0.0 0.00 0.00 0.00 64 1037.1
20260903153615 91 269 0.9 0.9 0.00 0.00 0.00 63 1037.3
20260903153110 92 349 0.0 0.0 0.00 0.00 0.00 63 1037.1
20260903152606 91 354 0.0 0.0 0.00 0.00 0.00 63 1037.4
20260903152103 91 352 0.0 0.0 0.00 0.00 0.00 63 1037.3
20260903151601 90 17 0.0 0.0 0.00 0.00 0.00 64 1037.3
20260903151057 90 341 0.0 0.0 0.00 0.00 0.00 66 1037.3
20260903150556 90 7 0.0 0.0 0.00 0.00 0.00 65 1037.1
20260903150052 89 346 0.0 0.0 0.00 0.00 0.00 69 1037.1
20260903145551 89 274 0.0 0.9 0.00 0.00 0.00 70 1037.1
20260903145046 89 6 0.0 0.0 0.00 0.00 0.00 71 1037.1
20260903144545 88 324 0.0 0.0 0.00 0.00 0.00 72 1037.1
20260903144042 88 0 0.0 0.0 0.00 0.00 0.00 71 1036.8
20260903143538 88 311 0.0 0.0 0.00 0.00 0.00 72 1037.0
20260903143033 88 326 0.0 0.0 0.00 0.00 0.00 73 1037.0
20260903142528 87 10 0.0 0.0 0.00 0.00 0.00 73 1036.8
20260903142026 87 5 0.0 0.0 0.00 0.00 0.00 75 1036.9
20260903141521 86 355 0.0 0.0 0.00 0.00 0.00 76 1037.0
20260903141016 85 332 0.0 0.0 0.00 0.00 0.00 77 1036.7
20260903140511 84 334 0.0 0.0 0.00 0.00 0.00 82 1036.8
20260903140007 84 333 0.0 0.0 0.00 0.00 0.00 82 1037.0
20260903135502 83 343 0.0 0.0 0.00 0.00 0.00 83 1036.9
20260903134956 83 333 0.0 0.0 0.00 0.00 0.00 84 1037.0
20260903134455 83 302 0.0 0.0 0.00 0.00 0.00 85 1037.1
20260903133953 82 336 0.0 0.0 0.00 0.00 0.00 85 1036.8
20260903133449 81 351 0.0 0.0 0.00 0.00 0.00 87 1037.1
20260903132944 81 330 0.0 0.0 0.00 0.00 0.00 88 1037.2
20260903132440 81 319 0.0 0.0 0.00 0.00 0.00 88 1037.1
20260903131939 80 26 0.0 0.0 0.00 0.00 0.00 88 1037.1
20260903131435 80 327 0.0 0.0 0.00 0.00 0.00 90 1037.1
20260903130933 79 336 0.0 0.0 0.00 0.00 0.00 91 1037.0
20260903130429 79 349 0.0 0.0 0.00 0.00 0.00 91 1036.9
20260903125927 79 328 0.0 0.0 0.00 0.00 0.00 92 1037.1
20260903125422 78 328 0.0 0.0 0.00 0.00 0.00 92 1036.9
20260903124921 78 326 0.0 0.0 0.00 0.00 0.00 92 1036.8
20260903124416 78 336 0.0 0.0 0.00 0.00 0.00 93 1036.9
20260903123915 78 337 0.0 0.0 0.00 0.00 0.00 94 1036.8
20260903123410 77 317 0.0 0.0 0.00 0.00 0.00 96 1036.9
20260903122909 77 310 0.0 0.0 0.00 0.00 0.00 96 1036.9
20260903122404 77 335 0.0 0.0 0.00 0.00 0.00 96 1036.9
20260903121902 77 330 0.0 0.0 0.00 0.00 0.00 97 1036.9
20260903121358 77 307 0.0 0.0 0.00 0.00 0.00 97 1036.6
20260903120854 76 336 0.0 0.0 0.00 0.00 0.00 97 1036.8
20260903120352 76 337 0.0 0.0 0.00 0.00 0.00 97 1037.0
20260903115851 76 338 0.0 0.0 0.00 0.00 0.00 97 1036.9
20260903115345 76 339 0.0 0.0 0.00 0.00 0.00 97 1036.8
20260903114840 76 340 0.0 0.0 0.00 0.00 0.00 97 1037.0
20260903114336 76 340 0.0 0.0 0.00 0.00 0.00 97 1036.9
20260903113831 76 340 0.0 0.0 0.00 0.00 0.00 97 1036.7
20260903113327 76 340 0.0 0.0 0.00 0.00 0.00 97 1036.7
20260903112822 76 341 0.0 0.0 0.00 0.00 0.00 97 1036.6
20260903112313 76 339 0.0 0.0 0.00 0.00 0.00 97 1036.6
20260903111811 76 332 0.0 0.0 0.00 0.00 0.00 97 1036.6
20260903111306 76 331 0.0 0.0 0.00 0.00 0.00 96 1036.5
20260903110802 76 328 0.0 0.0 0.00 0.00 0.00 96 1036.2
20260903110258 76 287 0.0 0.0 0.00 0.00 0.00 96 1036.3
20260903105757 77 337 0.0 0.0 0.00 0.00 0.00 95 1036.3
20260903105252 76 338 0.0 0.0 0.00 0.00 0.00 95 1036.2
20260903104752 76 343 0.0 0.0 0.00 0.00 0.00 95 1036.2
20260903104247 77 343 0.0 0.0 0.00 0.00 0.00 95 1036.2
20260903103743 77 343 0.0 0.0 0.00 0.00 0.00 95 1036.2
20260903103240 77 343 0.0 0.0 0.00 0.00 0.00 95 1036.2
20260903102735 77 342 0.0 0.0 0.00 0.00 0.00 95 1036.1
20260903102229 77 342 0.0 0.0 0.00 0.00 0.00 95 1036.1
20260903101727 77 342 0.0 0.0 0.00 0.00 0.00 95 1036.1
20260903101223 77 321 0.0 0.0 0.00 0.00 0.00 95 1036.1
20260903100718 77 346 0.0 0.0 0.00 0.00 0.00 95 1036.1
20260903100218 77 347 0.0 0.0 0.00 0.00 0.00 95 1036.0
20260903095715 77 346 0.0 0.0 0.00 0.00 0.00 95 1036.1
20260903095211 77 346 0.0 0.0 0.00 0.00 0.00 95 1036.2
20260903094705 77 7 0.0 0.0 0.00 0.00 0.00 95 1036.2
20260903094201 77 350 0.0 0.0 0.00 0.00 0.00 95 1036.2
20260903093655 77 346 0.0 0.0 0.00 0.00 0.00 95 1036.2
20260903093151 77 274 0.0 0.0 0.00 0.00 0.00 95 1036.3
20260903092645 77 10 0.0 0.0 0.00 0.00 0.00 95 1035.9
20260903092139 77 10 0.0 0.0 0.00 0.00 0.00 95 1036.0
20260903091638 77 10 0.0 0.0 0.00 0.00 0.00 95 1035.9
20260903091132 77 10 0.0 0.0 0.00 0.00 0.00 94 1036.2
20260903090628 77 10 0.0 0.0 0.00 0.00 0.00 94 1035.8
20260903090127 77 10 0.0 0.0 0.00 0.00 0.00 94 1035.8
20260903085626 77 10 0.0 0.0 0.00 0.00 0.00 93 1036.1
20260903085122 78 10 0.0 0.0 0.00 0.00 0.00 93 1035.9
20260903084619 78 348 0.0 0.0 0.00 0.00 0.00 93 1036.1
20260903084114 78 345 0.0 0.0 0.00 0.00 0.00 93 1036.2
20260903083610 78 343 0.0 0.0 0.00 0.00 0.00 93 1036.1
20260903083110 77 346 0.0 0.0 0.00 0.00 0.00 93 1036.3
20260903082604 78 346 0.0 0.0 0.00 0.00 0.00 93 1035.8
20260903082100 78 346 0.0 0.0 0.00 0.00 0.00 93 1035.9
20260903081555 78 347 0.0 0.0 0.00 0.00 0.00 93 1036.1
20260903081050 78 346 0.0 0.0 0.00 0.00 0.00 92 1035.9
20260903080547 78 346 0.0 0.0 0.00 0.00 0.00 92 1036.2
20260903080044 78 347 0.0 0.0 0.00 0.00 0.00 92 1036.0
20260903075544 78 348 0.0 0.0 0.00 0.00 0.00 92 1036.0
20260903075040 78 348 0.0 0.0 0.00 0.00 0.00 91 1035.9
20260903074538 78 348 0.0 0.0 0.00 0.00 0.00 91 1036.0
20260903074033 78 348 0.0 0.0 0.00 0.00 0.00 91 1036.0
20260903073528 78 347 0.0 0.0 0.00 0.00 0.00 91 1036.0
20260903073025 78 347 0.0 0.0 0.00 0.00 0.00 91 1036.0
20260903072520 78 347 0.0 0.0 0.00 0.00 0.00 91 1035.9
20260903072016 78 352 0.0 0.0 0.00 0.00 0.00 91 1036.0
20260903071513 78 352 0.0 0.0 0.00 0.00 0.00 91 1036.0
20260903071013 78 352 0.0 0.0 0.00 0.00 0.00 90 1035.8
20260903070513 78 352 0.0 0.0 0.00 0.00 0.00 90 1036.0
20260903070008 78 352 0.0 0.0 0.00 0.00 0.00 90 1036.0
20260903065503 78 352 0.0 0.0 0.00 0.00 0.00 90 1036.0
20260903065001 78 352 0.0 0.0 0.00 0.00 0.00 90 1035.8
20260903064456 78 352 0.0 0.0 0.00 0.00 0.00 90 1036.1
20260903063952 78 352 0.0 0.0 0.00 0.00 0.00 90 1036.1
20260903063447 78 352 0.0 0.0 0.00 0.00 0.00 90 1036.1
20260903062942 78 352 0.0 0.0 0.00 0.00 0.00 90 1036.2
20260903062437 78 352 0.0 0.0 0.00 0.00 0.00 89 1036.3
20260903061932 79 352 0.0 0.0 0.00 0.00 0.00 89 1036.3
20260903061432 79 352 0.0 0.0 0.00 0.00 0.00 89 1036.4
20260903060927 79 352 0.0 0.0 0.00 0.00 0.00 89 1036.3
20260903060422 79 351 0.0 0.0 0.00 0.00 0.00 88 1036.3
20260903055921 79 353 0.0 0.0 0.00 0.00 0.00 88 1036.1
20260903055419 79 353 0.0 0.0 0.00 0.00 0.00 88 1036.2
20260903054913 79 353 0.0 0.0 0.00 0.00 0.00 87 1036.1
20260903054408 79 353 0.0 0.0 0.00 0.00 0.00 87 1036.1
20260903053904 79 353 0.0 0.0 0.00 0.00 0.00 87 1036.1
20260903053359 79 352 0.0 0.0 0.00 0.00 0.00 86 1036.3
20260903052855 80 352 0.0 0.0 0.00 0.00 0.00 86 1036.4
20260903052350 80 349 0.0 0.0 0.00 0.00 0.00 86 1036.3
20260903051846 80 288 0.0 0.0 0.00 0.00 0.00 86 1036.3
20260903051341 80 305 0.0 0.0 0.00 0.00 0.00 86 1036.1
20260903050837 80 324 0.0 0.0 0.00 0.00 0.00 86 1036.3
20260903050335 80 298 0.0 0.9 0.00 0.00 0.00 86 1036.1
20260903045830 80 3 0.0 0.0 0.00 0.00 0.00 85 1036.1
20260903045326 80 19 0.0 0.0 0.00 0.00 0.00 85 1036.2
20260903044823 80 19 0.0 0.0 0.00 0.00 0.00 85 1036.2
20260903044318 80 19 0.0 0.0 0.00 0.00 0.00 85 1036.1
20260903043814 81 20 0.0 0.0 0.00 0.00 0.00 84 1036.0
20260903043314 81 20 0.0 0.0 0.00 0.00 0.00 83 1036.0
20260903042813 81 20 0.0 0.0 0.00 0.00 0.00 82 1036.1
20260903042308 82 20 0.0 0.0 0.00 0.00 0.00 82 1036.0
20260903041804 81 333 0.0 0.0 0.00 0.00 0.00 83 1036.1
20260903041301 81 10 0.0 0.0 0.00 0.00 0.00 83 1036.1
20260903040801 81 10 0.0 0.0 0.00 0.00 0.00 82 1036.3
20260903040300 81 10 0.0 0.0 0.00 0.00 0.00 82 1036.1
20260903035756 81 9 0.0 0.0 0.00 0.00 0.00 81 1036.5
20260903035252 81 10 0.0 0.0 0.00 0.00 0.00 81 1036.2
20260903034747 81 10 0.0 0.0 0.00 0.00 0.00 80 1036.2
20260903034242 81 10 0.0 0.0 0.00 0.00 0.00 80 1036.3
20260903033737 82 10 0.0 0.0 0.00 0.00 0.00 79 1036.3
20260903033232 82 10 0.0 0.0 0.00 0.00 0.00 78 1036.2
20260903032726 83 10 0.0 0.0 0.00 0.00 0.00 78 1036.0
20260903032222 83 10 0.0 0.0 0.00 0.00 0.00 76 1036.4
20260903031718 84 11 0.0 0.0 0.00 0.00 0.00 75 1036.4
20260903031211 84 2 0.0 0.0 0.00 0.00 0.00 74 1036.2
20260903030708 84 339 0.0 0.0 0.00 0.00 0.00 74 1036.3
20260903030203 84 322 0.0 0.0 0.00 0.00 0.00 75 1036.1
20260903025658 84 302 0.0 0.0 0.00 0.00 0.00 75 1036.3
20260903025154 83 329 0.0 0.0 0.00 0.00 0.00 76 1036.3
20260903024649 84 259 0.0 0.0 0.00 0.00 0.00 76 1036.0
20260903024148 85 272 0.9 0.9 0.00 0.00 0.00 73 1036.1
20260903023644 85 347 0.0 0.0 0.00 0.00 0.00 71 1036.1
20260903023143 85 353 0.0 0.0 0.00 0.00 0.00 72 1036.1
20260903022638 85 353 0.0 0.0 0.00 0.00 0.00 72 1036.1
20260903022138 85 353 0.0 0.0 0.00 0.00 0.00 72 1036.2
20260903021638 85 353 0.0 0.0 0.00 0.00 0.00 71 1036.1
20260903021132 85 353 0.0 0.0 0.00 0.00 0.00 71 1036.3
20260903020627 85 353 0.0 0.0 0.00 0.00 0.00 71 1035.9
20260903020122 85 353 0.0 0.0 0.00 0.00 0.00 71 1036.1
20260903015617 85 353 0.0 0.0 0.00 0.00 0.00 70 1036.1
20260903015112 85 354 0.0 0.0 0.00 0.00 0.00 71 1036.0
20260903014607 85 354 0.0 0.0 0.00 0.00 0.00 70 1036.1
20260903014106 86 354 0.0 0.0 0.00 0.00 0.00 70 1035.7
20260903013601 86 354 0.0 0.0 0.00 0.00 0.00 70 1035.5
20260903013056 86 354 0.0 0.0 0.00 0.00 0.00 69 1035.8
20260903012555 86 354 0.0 0.0 0.00 0.00 0.00 69 1035.7
20260903012049 86 354 0.0 0.0 0.00 0.00 0.00 69 1035.6
20260903011548 86 354 0.0 0.0 0.00 0.00 0.00 69 1035.5
20260903011038 86 354 0.0 0.0 0.00 0.00 0.00 69 1035.7
20260903010533 86 354 0.0 0.0 0.00 0.00 0.00 69 1035.7
20260903010032 87 354 0.0 0.0 0.00 0.00 0.00 68 1035.3
20260903005532 87 354 0.0 0.0 0.00 0.00 0.00 68 1035.4
20260903005027 87 354 0.0 0.0 0.00 0.00 0.00 68 1035.3
20260903004527 87 354 0.0 0.0 0.00 0.00 0.00 67 1035.3
20260903004023 87 355 0.0 0.0 0.00 0.00 0.00 67 1035.2
20260903003518 87 355 0.0 0.0 0.00 0.00 0.00 66 1035.3
20260903003013 88 355 0.0 0.0 0.00 0.00 0.00 66 1035.4
20260903002513 88 355 0.0 0.0 0.00 0.00 0.00 65 1035.4
20260903002007 88 355 0.0 0.0 0.00 0.00 0.00 64 1035.1
20260903001502 89 355 0.0 0.0 0.00 0.00 0.00 63 1035.5
20260903000956 89 355 0.0 0.0 0.00 0.00 0.00 63 1035.4
20260903000454 89 355 0.0 0.0 0.00 0.00 0.00 62 1035.4
20260902235950 90 6 0.0 0.0 0.00 0.00 0.00 61 1035.6
20260902235444 90 5 0.0 0.0 0.00 0.00 0.00 60 1035.3
20260902234938 91 5 0.0 0.0 0.00 0.00 0.00 58 1035.4
20260902234433 91 7 0.0 0.0 0.00 0.00 0.00 58 1035.3
20260902233927 91 352 0.0 0.0 0.00 0.00 0.00 57 1035.4
20260902233421 91 323 0.0 0.0 0.00 0.00 0.00 58 1035.2
20260902232920 91 354 0.0 0.0 0.00 0.00 0.00 57 1035.0
20260902232415 91 355 0.0 0.0 0.00 0.00 0.00 57 1035.2
20260902231915 92 2 0.0 0.0 0.00 0.00 0.00 57 1035.1
20260902231410 92 0 0.0 0.0 0.00 0.00 0.00 57 1035.3
20260902230905 93 1 0.0 0.0 0.00 0.00 0.00 56 1035.3
20260902230404 93 26 0.0 0.0 0.00 0.00 0.00 55 1035.1
20260902225858 93 17 0.0 0.0 0.00 0.00 0.00 55 1035.1
20260902225353 93 21 0.0 0.0 0.00 0.00 0.00 56 1035.0
20260902224852 93 353 0.0 0.0 0.00 0.00 0.00 57 1035.1
20260902224347 93 13 0.0 0.0 0.00 0.00 0.00 58 1035.3
20260902223844 92 11 0.0 0.0 0.00 0.00 0.00 58 1035.1
20260902223343 92 27 0.0 0.0 0.00 0.00 0.00 59 1035.2
20260902222837 92 12 0.0 0.0 0.00 0.00 0.00 58 1035.4
20260902222336 92 291 0.0 0.0 0.00 0.00 0.00 57 1035.5
20260902221831 93 32 0.0 0.0 0.00 0.00 0.00 56 1035.2
20260902221330 92 358 0.0 0.0 0.00 0.00 0.00 56 1035.5
20260902220826 93 6 0.0 0.0 0.00 0.00 0.00 55 1035.4
20260902220325 93 33 0.0 0.0 0.00 0.00 0.00 54 1035.2
20260902215820 93 2 0.0 0.0 0.00 0.00 0.00 53 1035.2
20260902215315 93 3 0.0 0.0 0.00 0.00 0.00 53 1035.4